Billings, MT

1:36 PM MDT on October 18, 2017 (GMT -0600)
Billings Logan International

Weather History for KBIL - January, 2015

Change the Weather History Date:

Wednesday, January 21, 2015

  Actual Average Record
Temperature  
Mean Temperature 31 °F 28 °F  
Max Temperature 37 °F 37 °F 57 °F (1981)
Min Temperature 25 °F 18 °F -25 °F (1954)
Degree Days  
Heating Degree Days 34 38  
Month to date heating degree days 855 805  
Since 1 July heating degree days 3538 3626  
Cooling Degree Days 0 0  
Month to date cooling degree days 0 0  
Year to date cooling degree days 0 0  
Moisture  
Dew Point 18 °F    
Average Humidity 60    
Maximum Humidity 75    
Minimum Humidity 44    
Precipitation  
Precipitation 0.00 in 0.02 in 0.20 in (1952)
Month to date precipitation 1.02 0.33  
Year to date precipitation 1.02 0.33  
Snow  
Snow 0.00 in 0.20 in 3.70 in (1952)
Month to date snowfall 17.8 5.9  
Since 1 July snowfall 39.4 25.8  
Snow Depth T in    
Sea Level Pressure  
Sea Level Pressure 30.34 in    
Wind  
Wind Speed 13 mph (SW)    
Max Wind Speed 25 mph    
Max Gust Speed 32 mph    
Visibility 10 miles    
Events      
T = Trace of Precipitation, MM = Missing Value Source: NWS Daily Summary

Daily Weather History Graph

Daily Weather History Graph

Search for Another Location

Airport or City:

Trip Planner

Search our weather history database for the weather conditions in past years. The results will help you decide how hot, cold, wet, or windy it might be!

Date:

Astronomy

Jan. 21, 2015 Rise Set
Actual Time 7:47 AM MST 5:04 PM MST
Civil Twilight 7:14 AM MST 5:36 PM MST
Nautical Twilight 6:38 AM MST 6:13 PM MST
Astronomical Twilight 6:02 AM MST 6:48 PM MST
Moon 8:13 AM MST (1/21) 7:03 PM MST (1/21)
Length of Visible Light 10h 22m
Length of Day
9h 16m
New Moon, 2% of the Moon is Illuminated
Jan 21
New Moon
Jan 26
First Quarter
Feb 3
Full
Feb 11
Last Quarter
Feb 18
New

Hourly Weather History & Observations

Time (MST) Temp. Windchill Dew Point Humidity Pressure Visibility Wind Dir Wind Speed Gust Speed Precip Events Conditions
12:53 AM 28.0 °F 18.6 °F 21.0 °F 75% 30.35 in 10.0 mi WSW 10.4 mph - N/A   Overcast
1:53 AM 28.0 °F 18.6 °F 19.9 °F 72% 30.35 in 10.0 mi SW 10.4 mph - N/A   Overcast
2:53 AM 28.9 °F 19.8 °F 19.0 °F 67% 30.35 in 10.0 mi WSW 10.4 mph - N/A   Overcast
3:53 AM 30.0 °F 21.1 °F 19.0 °F 64% 30.36 in 10.0 mi WSW 10.4 mph - N/A   Overcast
4:53 AM 27.0 °F 21.6 °F 19.0 °F 72% 30.38 in 10.0 mi WSW 4.6 mph - N/A   Mostly Cloudy
5:53 AM 26.1 °F 17.6 °F 19.0 °F 75% 30.39 in 10.0 mi SW 8.1 mph - N/A   Partly Cloudy
6:53 AM 27.0 °F 16.7 °F 19.0 °F 72% 30.40 in 10.0 mi WSW 11.5 mph - N/A   Partly Cloudy
7:53 AM 26.1 °F 16.2 °F 18.0 °F 71% 30.40 in 10.0 mi SW 10.4 mph - N/A   Partly Cloudy
8:53 AM 27.0 °F 16.7 °F 19.0 °F 72% 30.42 in 10.0 mi SW 11.5 mph - N/A   Partly Cloudy
9:53 AM 28.9 °F 19.8 °F 19.9 °F 69% 30.42 in 10.0 mi SW 10.4 mph - N/A   Partly Cloudy
10:53 AM 30.9 °F 21.2 °F 19.9 °F 64% 30.42 in 10.0 mi SW 12.7 mph - N/A   Partly Cloudy
11:53 AM 34.0 °F 24.6 °F 19.9 °F 56% 30.39 in 10.0 mi WSW 13.8 mph - N/A   Partly Cloudy
12:53 PM 35.1 °F 27.4 °F 19.9 °F 54% 30.37 in 10.0 mi SW 10.4 mph - N/A   Partly Cloudy
1:53 PM 35.6 °F 29.2 °F 19.4 °F 52% 30.25 in 10.0 mi SW 8.1 mph - N/A   Partly Cloudy
2:53 PM 36.0 °F 29.0 °F 17.1 °F 46% 30.33 in 10.0 mi SW 9.2 mph - N/A   Clear
3:53 PM 36.0 °F 27.5 °F 15.1 °F 43% 30.32 in 10.0 mi SW 12.7 mph - N/A   Partly Cloudy
4:53 PM 34.0 °F 26.6 °F 16.0 °F 48% 30.31 in 10.0 mi SW 9.2 mph - N/A   Partly Cloudy
5:53 PM 30.9 °F 20.7 °F 19.9 °F 64% 30.32 in 10.0 mi WSW 13.8 mph - N/A   Clear
6:53 PM 28.0 °F 16.5 °F 19.0 °F 69% 30.32 in 10.0 mi WSW 15.0 mph - N/A   Clear
7:53 PM 28.0 °F 14.9 °F 18.0 °F 66% 30.31 in 10.0 mi WSW 19.6 mph - N/A   Clear
8:53 PM 28.0 °F 14.9 °F 17.1 °F 63% 30.28 in 10.0 mi WSW 19.6 mph - N/A   Clear
9:53 PM 28.0 °F 14.9 °F 16.0 °F 61% 30.27 in 10.0 mi WSW 19.6 mph - N/A   Clear
10:53 PM 28.0 °F 14.3 °F 15.1 °F 58% 30.26 in 10.0 mi WSW 21.9 mph - N/A   Clear
11:53 PM 28.0 °F 14.3 °F 15.1 °F 58% 30.25 in 10.0 mi WSW 21.9 mph - N/A   Clear